KUIPER-00048

Last updated on Thu Jul 03 2025 00:02:08 GMT+0000 (Coordinated Universal Time)

1 64508U 25134J 25183.58335648 .00003436 00000+0 10800-3 0 9996 2 64508 51.8775 286.9179 0003623 131.1611 346.8156 15.35793269 1721
UTC large
Height (km)
Speed (km/s)
/
Latitude / Longitude
Inclination (degrees)
Orbital Period (minutes)
Azimuth
Elevation
Range (km)
Doppler Factor

Next 0 passes for location: London (51.5072 / 0.1276)

Sorry there are no passes over London.